7 * 24
多渠道服务支持
STARLINK-2077是美国太空探索技术公司Starlink星链卫星互联网项目的一颗卫星,于2021年1月20日发射入轨,属于星链计划低轨卫星星座组网卫星,旨在为全球提供高速低延迟宽带互联网服务,目前该卫星已在轨运行超5年,服务于全球网络覆盖。
美国
(US)
| 数据来源 | 国际轨道数据 |
| 星历时间: | 2025-01-10T09:53:34+0800 轨道信息已过期428天 |
| 半长轴: | 6565.573km |
| 偏心率: | 0.0007388 |
| 轨道倾角: | 53.028° |
| 近地点辐角 | 326.144° |
| 升交点赤经 | 133.621° |
| 平近点角 | 145.497° |
| 近地点: | 182.587km |
| 远地点: | 192.289km |
| 周期: | 88.241分钟 |
| 每日圈数: | 16.319011 |